カタログに戻る

STARLINK-5409

運用中通信VLEO
NORAD 54859·PAYLOAD·🇺🇸 United States

打ち上げ Dec 28, 2022 から Cape Canaveral Space Force Station

Loading…

次のパス (今後24時間)

TLE

最新Source: CelesTrak SupGP

元期: Sep 14, 2026, 21:31 UTC

1 54859C 22177AR  26257.89701389 -.00017312  00000+0 -62717-3 0  2575
2 54859  42.9990 133.1473 0001217 244.7368 206.2667 15.27580262    11

AllMySatでSTARLINK-5409をリアルタイム追跡

Download on the App Store